www.pogodaiklimat.ru

Погода и климат >> Архив погоды >> Германия >> Киль маяк


ПОГОДА в Киль маяке

  • Прогноз погоды в Киль маяке
  • Монитор погоды в Киль маяке

АРХИВ ПОГОДЫ в Киль маяке

Время (UTC), дата Ветер
(напр.,м/с)
 
Видим.   Явления Облачность Т
(С)
Тd
(С)
f
(%)
Тe
(С)
Тes
(С)
Комфортность P
(гПа)
Po
(гПа)
Тmin
(С)
Tmax
(С)
R
(мм)
R24
(мм)
S
(см)
22 9.09 СЗ 11-13
{15}
н/о н/о +13.7 +11.9 89 +10 +10 1011.4 1008.3
23 9.09 СЗ 12-14
{14}
н/о н/о +13.6 +11.9 89 +10 +10 1011.2 1008.1
00 10.09 СЗ 13-14
{15}
н/о н/о +13.8 +11.0 83 +10 +10 1011.0 1007.9
01 10.09 СЗ 12-13
{15}
н/о н/о +13.7 +10.9 83 +10 +10 1010.9 1007.8
02 10.09 СЗ 12-13
{14}
н/о н/о +13.6 +10.4 81 +10 +10 1010.8 1007.7
03 10.09 З 10-12
{15}
н/о н/о +13.4 +10.8 84 +10 +10 1010.5 1007.4
04 10.09 З 11-13
{14}
н/о н/о +13.9 +10.8 82 +11 +11 1010.3 1007.2
05 10.09 З 11-13
{13}
н/о н/о +13.9 +10.6 80 +11 +11 1010.5 1007.4
06 10.09 З 11-14
{15}
н/о н/о +14.3 +11.1 81 +11 +11 1010.6 1007.5 +13.3 +14.6
07 10.09 З 11-13
{14}
н/о н/о +14.5 +12.4 87 +12 +12 1010.9 1007.8
08 10.09 З 11-13
{13}
н/о н/о +15.0 +12.9 87 +12 +12 1011.1 1008.0
09 10.09 З 12-14
{14}
н/о н/о +15.7 +12.6 82 +13 +13 1011.2 1008.1
10 10.09 З 13-15
{16}
н/о н/о +16.0 +12.5 80 +14 +14 1011.2 1008.1
11 10.09 З 15-19
{19}
н/о н/о +15.9 +12.3 79 +13 +13 1011.3 1008.2
12 10.09 З 13-15
{19}
н/о н/о +16.2 +11.6 74 +14 +14 1011.8 1008.7
13 10.09 З 16-18
{19}
н/о н/о +15.7 +12.5 81 +13 +13 1011.9 1008.8
14 10.09 З 14-16
{18}
н/о н/о +15.5 +11.6 78 +13 +13 1012.5 1009.4
15 10.09 З 13-16
{19}
н/о н/о +15.7 +12.3 80 +13 +13 1012.9 1009.8
16 10.09 З 14-16
{17}
н/о н/о +15.5 +12.5 82 +13 +13 1013.6 1010.5
17 10.09 З 12-14
{15}
н/о н/о +15.7 +12.9 83 +13 +13 1014.1 1011.0
18 10.09 З 11-14
{19}
н/о н/о +15.5 +13.2 86 +13 +13 1014.5 1011.4 +14.2 +16.8
19 10.09 З 10-11
{14}
н/о н/о +15.5 +13.0 85 +13 +13 1015.3 1012.2
20 10.09 З 10-12
{13}
н/о н/о +15.4 +12.6 83 +13 +13 1015.7 1012.6
21 10.09 З 10-11
{14}
н/о н/о +15.2 +12.2 82 +13 +13 1016.1 1013.0
22 10.09 З 9-11
{12}
н/о н/о +14.7 +12.2 85 +12 +12 1016.8 1013.7
23 10.09 З 8-10
{11}
н/о н/о +14.9 +12.1 83 +13 +13 1017.0 1013.9
00 11.09 ЮЗ 8-9
{14}
н/о н/о +13.7 +11.5 87 +11 +11 1017.4 1014.3
01 11.09 ЮЗ 9-11
{11}
н/о н/о +13.4 +11.5 88 +10 +10 1017.6 1014.5
02 11.09 ЮЗ 9-10
{11}
н/о н/о +13.5 +11.8 89 +11 +11 1017.8 1014.7
03 11.09 ЮЗ 11-12
{12}
н/о н/о +13.2 +11.9 92 +10 +10 1017.7 1014.6
04 11.09 ЮЗ 11-12
{13}
н/о н/о +13.4 +11.8 90 +10 +10 1017.6 1014.5
05 11.09 ЮЗ 10-12
{12}
н/о н/о +13.0 +11.1 88 +10 +10 1017.8 1014.7
06 11.09 ЮЗ 11-13
{13}
н/о н/о +12.7 +10.6 87 +9 +9 1017.8 1014.7 +12.5 +15.7
07 11.09 ЮЗ 12-14
{14}
н/о н/о +13.0 +10.3 84 +9 +9 1017.8 1014.7
08 11.09 ЮЗ 12-14
{14}
н/о н/о +14.3 +11.3 82 +11 +11 1017.8 1014.7
09 11.09 ЮЗ 12-14
{15}
н/о н/о +15.3 +10.6 74 +13 +13 1017.7 1014.6
10 11.09 ЮЗ 12-14
{17}
н/о н/о +16.2 +10.5 69 +14 +14 1017.4 1014.3
11 11.09 ЮЗ 14-17
{17}
н/о н/о +17.4 +10.0 62 +16 +16 1017.3 1014.2
12 11.09 ЮЗ 14-16
{17}
н/о н/о +17.9 +10.3 61 +16 +16 1016.8 1013.7
13 11.09 ЮЗ 15-18
{19}
н/о н/о +18.1 +10.2 60 +17 +17 1016.8 1013.7
14 11.09 ЮЗ 13-17
{18}
н/о н/о +17.5 +11.8 69 +16 +16 1016.8 1013.7
15 11.09 ЮЗ 13-15
{19}
н/о н/о +17.3 +11.1 67 +16 +16 1016.4 1013.3
16 11.09 ЮЗ 18-22
{22}
н/о н/о +16.1 +11.4 74 +13 +13 1016.3 1013.2
17 11.09 ЮЗ 12-14
{24}
н/о н/о +14.5 +13.2 92 +11 +11 1016.4 1013.3
18 11.09 ЮЗ 17-21
{24}
н/о н/о +14.3 +13.4 94 +11 +11 1016.2 1013.1 +12.6 +18.2
19 11.09 ЮЗ 15-17
{21}
н/о н/о +14.0 +13.4 96 +10 +10 1016.4 1013.3
20 11.09 ЮЗ 15-18
{19}
н/о н/о +14.0 +13.3 96 +10 +10 1016.7 1013.6
21 11.09 ЮЗ 15-17
{21}
н/о н/о +14.6 +13.6 94 +11 +11 1017.1 1014.0
22 11.09 ЮЗ 11-13
{16}
н/о н/о +15.2 +14.2 94 +13 +13 1017.9 1014.8
23 11.09 ЮЗ 9-11
{13}
н/о н/о +15.1 +14.2 94 +13 +13 1018.4 1015.3
00 12.09 ЮЗ 9-10
{21}
н/о н/о +14.9 +13.9 94 +12 +12 1019.3 1016.2
01 12.09 ЮЗ 9-10
{11}
н/о н/о +14.9 +13.4 91 +13 +13 1019.6 1016.5
02 12.09 ЮЗ 10-11
{11}
н/о н/о +14.6 +13.1 91 +12 +12 1020.2 1017.1
03 12.09 ЮЗ 10-11
{12}
н/о н/о +14.4 +12.5 88 +12 +12 1020.6 1017.5
04 12.09 ЮЗ 10-11
{11}
н/о н/о +14.5 +12.3 87 +12 +12 1020.9 1017.8
05 12.09 ЮЗ 8-9
{10}
н/о н/о +14.5 +12.4 87 +12 +12 1021.6 1018.5
06 12.09 ЮЗ 10-11
{12}
н/о н/о +14.8 +13.4 91 +12 +12 1022.2 1019.1 +13.6 +15.3
07 12.09 ЮЗ 10-11
{12}
н/о н/о +15.0 +13.9 93 +12 +12 1022.5 1019.4
08 12.09 ЮЗ 12-14
{14}
н/о н/о +15.6 +13.6 88 +13 +13 1023.0 1019.9
09 12.09 ЮЗ 9-11
{14}
н/о н/о +15.9 +13.6 86 +14 +14 1023.9 1020.8
10 12.09 ЮЗ 9-11
{12}
н/о н/о +16.2 +14.0 87 +14 +14 1024.0 1020.9
11 12.09 ЮЗ 10-12
{12}
н/о н/о +17.1 +13.8 81 +16 +16 1024.2 1021.1
12 12.09 ЮЗ 10-12
{15}
н/о н/о +17.7 +12.7 73 +16 +16 1024.3 1021.2
13 12.09 ЮЗ 9-12
{14}
н/о н/о +17.8 +12.9 73 +17 +17 1024.4 1021.3
14 12.09 З 10-12
{14}
н/о н/о +18.1 +12.5 70 +17 +17 1024.4 1021.3
15 12.09 З 10-12
{14}
н/о н/о +17.8 +12.6 72 +17 +17 1024.4 1021.3
16 12.09 З 9-10
{12}
н/о н/о +18.1 +12.4 69 +17 +17 1024.4 1021.3
17 12.09 З 10-13
{14}
н/о н/о +17.8 +11.6 67 +17 +17 1024.4 1021.3
18 12.09 З 9-10
{14}
н/о н/о +17.1 +11.8 71 +16 +16 1024.6 1021.5 +14.6 +18.6
19 12.09 ЮЗ 9-10
{10}
н/о н/о +16.5 +12.6 78 +15 +15 1024.6 1021.5
20 12.09 ЮЗ 9-10
{11}
н/о н/о +16.3 +12.7 79 +15 +15 1024.2 1021.1
21 12.09 ЮЗ 9-11
{11}
н/о н/о +16.1 +12.6 80 +14 +14 1024.2 1021.1
22 12.09 ЮЗ 10-11
{13}
н/о н/о +16.5 +13.1 80 +15 +15 1023.5 1020.4
23 12.09 ЮЗ 10-12
{12}
н/о н/о +16.4 +13.5 83 +15 +15 1023.0 1019.9
00 13.09 ЮЗ 12-13
{13}
н/о н/о +16.8 +13.5 81 +15 +15 1022.5 1019.4
01 13.09 ЮЗ 13-16
{16}
н/о н/о +16.6 +14.4 87 +14 +14 1021.8 1018.7
02 13.09 ЮЗ 13-16
{17}
н/о н/о +16.4 +14.8 90 +14 +14 1021.4 1018.3
03 13.09 ЮЗ 13-15
{17}
н/о н/о +16.5 +15.4 93 +14 +14 1021.1 1018.0
04 13.09 ЮЗ 11-12
{15}
н/о н/о +17.3 +16.2 93 +16 +16 1021.3 1018.2
05 13.09 СЗ 14-15
{16}
н/о н/о +16.2 +14.8 91 +14 +14 1022.4 1019.3
06 13.09 СЗ 14-17
{18}
н/о н/о +15.4 +13.0 86 +13 +13 1024.2 1021.1 +15.3 +17.5
07 13.09 СЗ 11-14
{16}
н/о н/о +15.9 +12.2 79 +14 +14 1025.3 1022.2
08 13.09 СЗ 11-13
{14}
н/о н/о +16.3 +11.1 71 +14 +14 1026.6 1023.5
09 13.09 СЗ 13-16
{16}
н/о н/о +16.2 +9.9 66 +14 +14 1028.0 1024.9
10 13.09 СЗ 12-14
{15}
н/о н/о +16.9 +8.1 56 +15 +15 1028.7 1025.6
11 13.09 СЗ 11-13
{16}
н/о н/о +17.6 +8.1 54 +16 +16 1029.0 1025.9
12 13.09 СЗ 12-14
{16}
н/о н/о +17.5 +8.0 54 +16 +16 1029.6 1026.5
13 13.09 З 10-11
{13}
н/о н/о +17.1 +9.1 59 +16 +16 1030.1 1027.0
14 13.09 СЗ 11-14
{15}
н/о н/о +17.3 +8.0 54 +16 +16 1030.6 1027.5
15 13.09 СЗ 11-13
{15}
н/о н/о +17.3 +7.7 53 +16 +16 1030.9 1027.8
16 13.09 СЗ 10-12
{15}
н/о н/о +16.6 +8.6 59 +15 +15 1031.1 1028.0
17 13.09 СЗ 12-14
{15}
н/о н/о +16.3 +7.9 57 +14 +14 1031.4 1028.3
18 13.09 СЗ 10-12
{15}
н/о н/о +15.5 +8.5 63 +13 +13 1032.1 1028.9 +15.3 +18.0
19 13.09 СЗ 11-13
{14}
н/о н/о +14.9 +9.4 70 +12 +12 1032.5 1029.3
20 13.09 З 9-11
{12}
н/о н/о +14.4 +9.4 72 +12 +12 1032.8 1029.6
21 13.09 СЗ 9-11
{14}
н/о н/о +14.2 +9.4 73 +12 +12 1033.3 1030.1
22 13.09 СЗ 8-10
{11}
н/о н/о +14.0 +9.3 73 +12 +12 1033.8 1030.6
23 13.09 СЗ 8-9
{10}
н/о н/о +13.7 +9.0 73 +11 +11 1033.8 1030.6
00 14.09 З 6-8
{14}
н/о н/о +13.8 +9.0 73 +12 +12 1034.0 1030.8
01 14.09 З 6-7
{8}
н/о н/о +13.5 +9.2 75 +11 +11 1033.9 1030.7
02 14.09 З 7-8
{8}
н/о н/о +13.5 +8.2 70 +11 +11 1033.9 1030.7
03 14.09 З 6-7
{8}
н/о н/о +12.9 +9.7 81 +10 +10 1033.6 1030.4
04 14.09 З 6-7
{7}
н/о н/о +13.0 +8.9 76 +11 +11 1033.5 1030.3
05 14.09 З 6-6
{7}
н/о н/о +12.9 +8.5 75 +11 +11 1033.7 1030.5
06 14.09 ЮЗ 6-7
{8}
н/о н/о +11.9 +9.0 82 +9 +9 1033.8 1030.6 +11.8 +15.5
07 14.09 ЮЗ 5-6
{8}
н/о н/о +12.7 +9.2 79 +11 +11 1034.1 1030.9
08 14.09 З 5-6
{7}
н/о н/о +14.1 +9.3 73 +12 +12 1034.2 1031.0
09 14.09 З 6-7
{8}
н/о н/о +14.9 +8.2 64 +13 +13 1034.1 1030.9
10 14.09 З 6-7
{8}
н/о н/о +15.4 +7.9 61 +14 +14 1033.7 1030.5
11 14.09 З 7-8
{8}
н/о н/о +15.6 +7.7 59 +14 +14 1033.6 1030.4
12 14.09 З 5-6
{8}
н/о н/о +16.2 +8.0 58 +15 +15 1032.9 1029.7
13 14.09 З 7-8
{8}
н/о н/о +16.7 +4.9 46 +16 +16 1032.2 1029.1
14 14.09 З 7-7
{8}
н/о н/о +16.5 +7.2 54 +15 +15 1031.3 1028.2
15 14.09 З 8-9
{9}
н/о н/о +16.9 +7.3 53 +16 +16 1030.5 1027.4
16 14.09 З 9-10
{10}
н/о н/о +16.5 +9.0 61 +15 +15 1029.9 1026.8
17 14.09 З 8-9
{11}
н/о н/о +16.1 +8.2 59 +15 +15 1029.0 1025.9
18 14.09 ЮЗ 8-9
{11}
н/о н/о +15.3 +8.8 65 +13 +13 1028.8 1025.7 +12.0 +17.1
19 14.09 ЮЗ 9-10
{10}
н/о н/о +15.0 +8.4 65 +13 +13 1028.0 1024.9
20 14.09 ЮЗ 9-10
{10}
н/о н/о +14.3 +8.9 70 +12 +12 1027.4 1024.2
21 14.09 ЮЗ 11-12
{12}
н/о н/о +14.3 +9.2 71 +11 +11 1026.4 1023.2
22 14.09 ЮЗ 11-12
{12}
н/о н/о +14.3 +9.8 74 +11 +11 1025.4 1022.3
23 14.09 ЮЗ 9-11
{13}
н/о н/о +13.4 +9.3 76 +11 +11 1024.5 1021.3
00 15.09 ЮЗ 11-13
{13}
н/о н/о +14.1 +9.7 75 +11 +11 1022.8 1019.7
01 15.09 ЮЗ 12-14
{15}
н/о н/о +14.2 +9.4 73 +11 +11 1022.0 1018.9
02 15.09 ЮЗ 13-15
{16}
н/о н/о +14.1 +8.8 70 +11 +11 1020.6 1017.5
03 15.09 ЮЗ 14-16
{16}
н/о н/о +13.7 +8.2 69 +10 +10 1019.2 1016.1
04 15.09 ЮЗ 16-18
{19}
н/о н/о +14.1 +8.2 68 +11 +11 1018.0 1014.9
05 15.09 ЮЗ 16-20
{20}
н/о н/о +14.1 +8.0 67 +11 +11 1017.2 1014.1
06 15.09 ЮЗ 17-21
{21}
н/о н/о +13.7 +8.4 70 +10 +10 1016.4 1013.3 +13.4 +15.3
07 15.09 ЮЗ 17-20
{21}
н/о н/о +14.0 +9.4 74 +10 +10 1016.1 1013.0
08 15.09 ЮЗ 16-18
{20}
н/о н/о +14.7 +11.1 79 +11 +11 1015.6 1012.5
09 15.09 ЮЗ 14-16
{21}
н/о н/о +15.7 +13.0 84 +13 +13 1015.8 1012.7
10 15.09 З 12-14
{16}
н/о н/о +15.7 +14.6 93 +13 +13 1016.0 1012.9
11 15.09 З 13-15
{15}
н/о н/о +15.8 +14.8 94 +13 +13 1015.8 1012.7
12 15.09 З 13-15
{21}
н/о н/о +16.5 +13.8 84 +14 +14 1015.8 1012.7
13 15.09 З 14-18
{18}
н/о н/о +16.7 +13.7 82 +15 +15 1015.8 1012.7
14 15.09 З 11-13
{16}
н/о н/о +17.1 +10.9 67 +15 +15 1016.0 1012.9
15 15.09 СЗ 15-18
{18}
н/о н/о +16.4 +9.2 62 +14 +14 1016.4 1013.3
16 15.09 З 12-15
{17}
н/о н/о +15.9 +9.5 66 +14 +14 1016.7 1013.6
17 15.09 З 15-17
{17}
н/о н/о +15.2 +7.8 61 +12 +12 1016.5 1013.4
18 15.09 З 12-15
{18}
н/о н/о +14.8 +9.1 69 +12 +12 1017.1 1014.0 +13.7 +17.4
19 15.09 З 13-15
{15}
н/о н/о +14.7 +9.5 71 +12 +12 1017.0 1013.9
20 15.09 З 11-13
{16}
н/о н/о +14.0 +8.5 69 +11 +11 1017.5 1014.4
21 15.09 З 11-13
{16}
н/о н/о +13.6 +7.8 68 +11 +11 1017.6 1014.5
22 15.09 З 11-13
{14}
н/о н/о +13.5 +7.8 68 +10 +10 1017.7 1014.6
23 15.09 З 12-14
{15}
н/о н/о +13.4 +7.7 68 +10 +10 1017.8 1014.7
00 16.09 З 11-13
{16}
н/о н/о +13.2 +7.2 67 +10 +10 1017.8 1014.7
01 16.09 З 11-13
{13}
н/о н/о +13.4 +8.2 71 +10 +10 1018.0 1014.9
02 16.09 З 11-13
{13}
н/о н/о +13.0 +7.5 69 +10 +10 1017.9 1014.8
03 16.09 З 10-12
{15}
н/о н/о +12.8 +7.4 70 +10 +10 1017.7 1014.6
04 16.09 З 10-12
{14}
н/о н/о +13.2 +6.8 65 +10 +10 1017.6 1014.5
05 16.09 З 10-12
{14}
н/о н/о +13.2 +7.4 68 +10 +10 1017.2 1014.1
06 16.09 З 8-10
{15}
н/о н/о +12.6 +7.7 72 +10 +10 1017.2 1014.1 +12.6 +14.8
07 16.09 З 8-10
{10}
н/о н/о +12.7 +8.1 74 +10 +10 1017.3 1014.2
08 16.09 З 11-13
{13}
н/о н/о +13.3 +7.7 69 +10 +10 1017.4 1014.3
09 16.09 З 10-13
{13}
н/о н/о +13.9 +7.1 64 +11 +11 1017.4 1014.3
10 16.09 СЗ 10-13
{15}
н/о н/о +15.0 +7.9 62 +13 +13 1017.4 1014.3
11 16.09 СЗ 10-12
{15}
н/о н/о +15.3 +6.2 55 +13 +13 1017.5 1014.4
12 16.09 СЗ 10-13
{15}
н/о н/о +15.2 +6.4 56 +13 +13 1017.3 1014.2
13 16.09 З 11-14
{14}
н/о н/о +15.3 +6.1 54 +13 +13 1016.8 1013.7
14 16.09 СЗ 13-16
{16}
н/о н/о +15.8 +4.4 47 +13 +13 1016.6 1013.5
15 16.09 З 12-14
{16}
н/о н/о +15.5 +5.2 50 +13 +13 1016.3 1013.2
16 16.09 З 12-14
{14}
н/о н/о +15.4 +5.7 52 +13 +13 1016.3 1013.2
17 16.09 З 11-13
{14}
н/о н/о +14.8 +6.8 59 +12 +12 1016.3 1013.2
18 16.09 З 11-13
{16}
н/о н/о +14.1 +6.7 61 +11 +11 1016.3 1013.2 +12.1 +15.9
19 16.09 З 7-11
{12}
н/о н/о +13.5 +8.8 73 +11 +11 1016.5 1013.4
20 16.09 З 8-10
{11}
н/о н/о +13.2 +8.6 74 +10 +10 1016.3 1013.2
21 16.09 З 8-9
{12}
н/о н/о +12.9 +8.2 73 +10 +10 1016.0 1012.9

 

Местоположение метеостанции Киль маяк (Германия): широта 54.50 долгота 10.28 высота над уровнем моря 21 м.

В архиве по умолчанию представлена погода в Киль маяке за последнюю неделю. Архивные данные за месяц целиком и за предыдущие месяцы, начиная с января 2011 года, Вы можете получить, выбрав интересующий диапазон дат из раскрывающегося списка и нажав кнопку "Ввод!".


*Определитесь, кто Вы:
робот инопланетянин человек

Внимание! Время в таблицах - всемирное. Для получения местного времени необходимо прибавить поправку, которая равна 1 ч.

Смотрите также архив погоды в соседних городах и на ближайших метеорологических станциях:

Погода в Киле (Германия) (16 км)
Погода в Ольпенице (Германия) (25 км)
Погода в Дёрнике (Германия) (37 км)
Погода на Мысе Kegnaes (Дания) (43 км)
Погода в Шлезвиге (Германия) (47 км)
Погода в Шлезвиг аэропорту (Германия) (49 км)
Погода в Вестермаркельсдорфе (Германия) (51 км)
Погода в Хоне (Германия) (53 км)
Погода в Ланго (Дания) (58 км)
Погода в Тосинге (Дания) (61 км)

Пояснения к столбцам:

Ветер - указаны скорость ветра в м/с - средняя за 10 мин, порывы в срок и между сроками (в фигурных скобках) и направление, откуда дует ветер: С - северный, СВ - северо-восточный, В - восточный, ЮВ - юго-восточный, Ю - южный, ЮЗ - юго-западный, З - западный, СЗ - северо-западный.
Видимость - горизонтальная дальность видимости в метрах или километрах. При видимости от 1 до 10 км при отсутствии осадков обычно наблюдается дымка, при ухудшении видимости до 1 км и менее - туман. В сухую погоду видимость может ухудшаться дымом, пылью или мглою.
Явления - указаны атмосферные явления, наблюдавшиеся в срок или в последний час перед сроком; фигурными скобками обозначены явления, наблюдавшиеся между сроками (за 1-3 часа до срока); квадратными скобками обозначены град или гололедные отложения с указанием их диаметра в мм.
Облачность - указаны через наклонную черту общая и нижняя облачность в баллах и высота нижней границы облаков в метрах; квадратными скобками обозначены формы облаков: Ci - перистые, Cs - перисто-слоистые, Cc - перисто-кучевые, Ac - высококучевые, As - высокослоистые, Sc - слоисто-кучевые, Ns - слоисто-дождевые, Cu - кучевые, Cb - кучево-дождевые. Подробнее классификацию облаков см. в Атласе облаков (PDF).
T - Температура воздуха - температура, измеренная на высоте 2 м над землей.
Td - Температура точки росы - температура, при понижении до которой содержащийся в воздухе водяной пар достигнет насыщения.
f - Относительная влажность воздуха - влажноcть воздуха, измеренная на высоте 2 м над землей.
Te - Эффективная температура - температура, которую ощущает одетый по сезону человек в тени. Характеристика душности погоды. При расчете учитывается влияние влажности воздуха и скорости ветра на теплоощущения человека.
Tes - Эффективная температура на солнце - температура, которую ощущает человек, с поправкой на солнечный нагрев. Характеристика знойности погоды. Зависит от высоты солнца над горизонтом, облачности и скорости ветра. Ночью, в пасмурную погоду, а также при ветре 12 м/с и более поправка равна нулю.
P - Атмосферное давление - приведенное к уровню моря атмосферное давление.
Po - Атмосферное давление - измеренное на уровне метеостанции атмосферное давление.
Tmin - Минимальная температура - минимум температуры воздуха на высоте 2 м над землей.
Tmax - Максимальная температура - максимум температуры воздуха на высоте 2 м над землей.
R - Количество осадков - Количество выпавших осадков за период времени, мм. При наведении курсора мыши на число - период времени, за который выпало указанное количество осадков.
R24 - Количество осадков - Количество выпавших осадков за 24 часа, мм.
S - Снежный покров - Высота снежного покрова, см. При наведении курсора мыши на число - состояние снежного покрова и степень покрытия местности в баллах.